Orbital Elements
Epoch 2003 May 1.0 TT = JDT 2452760.5
T 2003 May 11.86303 TT Muraoka
q 2.4459447 (2000.0) P Q
n 0.14490116 Peri. 196.37461 -0.09507298 +0.98125908
a 3.5899478 Node 68.41694 -0.89192300 -0.00919653
e 0.3186684 Incl. 10.38395 -0.44207974 -0.19247348
P 6.80
From 436 observations 1976-1998, mean residual 0".87. Nongravitational
parameters A1 = +1.65 +/- 0.04, A2 = +0.2697 +/- 0.0019.
|